CZ-6A DEB, 55533

Orbit data source: Space-Track

CZ-6A DEB, 55533 is space debris in SSO originally from a launch on Fri, 11 Nov 2022 UTC launched from the Taiyaun Space Center, China (TSC). Debris objects in space refer to the collection of defunct objects orbiting the Earth. Examples of debris include non-operational satellites, rocket bodies, and fragments generated from explosions, collisions, or faulty payload assembly.

Loading next visibility...
Identifier
55533, 2022-151YF
Orbit
SSO
Country
Flag of CNCN / PRC
Related business
Manufacturer
SAST
Mission
Spacecraft
Bus & Motor
Unknown
Mass
Unknown
Launch date (UTC)
2022-11-11 (4 years ago)
Launch vehicle
Unknown
Launch site
Taiyaun Space Center, China (TSC)
Object type
Payload
Rocket body
Debris
Shape & HBR
Unknown shape, 0.1 m
Radar Cross Section
Medium (>0.1 m² and <1 m²)

Expand to show TLE details & history
Last TLE update: 3 days ago

TLE from 3 days ago
0 CZ-6A DEB
1 55533U 22151YF  26170.92251598  .00000079  00000-0  69133-4 0  9991
2 55533  98.8375 171.2104 0040931 327.3211  32.5428 14.10047362180084
Epoch: 2026-06-19T22:08Z
TLE epoch observation values (Epoch: 2026-06-19T22:08:25.380Z)
Latitude
-0.00003°
Longitude
-69.03988°
Altitude
837.165 km
Speed
7.447 km/s
True Right ascension
11h 24m 50s
True Declination
0° 00' 00"
Sunlit
Object was in daylight at epoch
Visualization orbit readout
Latitude
Unknown
Longitude
Unknown
Altitude
Unknown
Speed
Unknown
Apparent Right ascension
Unknown
Apparent Declination
Unknown
Sunlit
N/A
Visualization observer readout
Local Sidereal Time
21:27:51
Azimuth
Unknown
Elevation
Unknown
Doppler factor
Unknown
Orbital elements
Apogee altitude
885.999 km
Perigee altitude
826.776 km
Semi-major axis
7,234.525 km
Eccentricity
0.00409
Inclination
98.8375°
RAAN
171.2104°
Arg. of periapsis
327.3211°
True anomaly
32.7962°
Mean anomaly
32.5428°
Eccentric anomaly
32.66939°
Mean motion
3.52718 °/min
Orbital period
102.06 mins
BSTAR
0.000069133
Loading maneuver chart data...
Computing Atmospheric mass density...
Loading historical data...
Loading historical data...
Loading historical data...
Loading historical data...
Loading historical data...
Loading historical data...
Loading historical data...

Documentation

Showing up to 5 results
|